Galeao, Brazil

12:11 PM BRST on December 05, 2016 (GMT -0200)
Galeao

Weather History for 83755 - July, 2013

Change the Weather History Date:

Tuesday, July 9, 2013

  Actual Average Record
Temperature  
Mean Temperature 70 °F -  
Max Temperature 73 °F - - ()
Min Temperature 68 °F - - ()
Cooling Degree Days 6    
Growing Degree Days 20 (Base 50)    
Moisture  
Dew Point 66 °F    
Average Humidity 85    
Maximum Humidity 100    
Minimum Humidity 78    
Precipitation  
Precipitation 0.00 in - - ()
Sea Level Pressure  
Sea Level Pressure 30.30 in    
Wind  
Wind Speed 9 mph ()    
Max Wind Speed 15 mph    
Max Gust Speed -    
Visibility 5.3 miles    
Events      
T = Trace of Precipitation, MM = Missing Value Source: Averaged Metar Reports

Daily Weather History Graph

Daily Weather History Graph

Search for Another Location

Airport or City:

Trip Planner

Search our weather history database for the weather conditions in past years. The results will help you decide how hot, cold, wet, or windy it might be!

Date:

Astronomy

Jul. 09, 2013 Rise Set
Actual Time 6:33 AM BRT 5:22 PM BRT
Civil Twilight 6:09 AM BRT 5:46 PM BRT
Nautical Twilight 5:41 AM BRT 6:14 PM BRT
Astronomical Twilight 5:14 AM BRT 6:41 PM BRT
Moon 7:12 AM BRT (7/9) 6:42 PM BRT (7/9)
Length of Visible Light 11h 36m
Length of Day
10h 48m
New Moon, 2% of the Moon is Illuminated
Jul 9
New Moon
Jul 16
First Quarter
Jul 22
Full
Jul 29
Last Quarter
Aug 6
New

Hourly Weather History & Observations

Time (BRT) Temp. Dew Point Humidity Pressure Visibility Wind Dir Wind Speed Gust Speed Precip Events Conditions
5:32 AM 71.6 °F 68.0 °F 88% 30.21 in 5.0 mi ESE 11.5 mph - N/A   Mostly Cloudy
6:00 AM 71.6 °F 68.0 °F 88% 30.21 in 4.3 mi SE 15.0 mph - N/A   Mostly Cloudy
7:00 AM 69.8 °F 68.0 °F 94% 30.24 in 2.8 mi East 11.5 mph - N/A   Mostly Cloudy
8:00 AM 68.0 °F 68.0 °F 100% 30.27 in 2.8 mi NNE 8.1 mph - N/A   Overcast
9:00 AM 69.8 °F 68.0 °F 94% 30.30 in 3.1 mi ESE 8.1 mph - N/A   Overcast
10:00 AM 71.6 °F 66.2 °F 83% 30.33 in 4.3 mi ESE 11.5 mph - N/A   Overcast
11:00 AM 71.6 °F 66.2 °F 83% 30.33 in 6.2 mi SE 12.7 mph - N/A   Overcast
12:00 PM 73.4 °F 66.2 °F 78% 30.33 in 6.2 mi ESE 6.9 mph - N/A   Overcast
1:00 PM 73.4 °F 66.2 °F 78% 30.30 in 6.2 mi ESE 9.2 mph - N/A   Overcast
2:00 PM 71.6 °F 66.2 °F 83% 30.30 in 6.2 mi SE 11.5 mph - N/A   Overcast
3:00 PM 71.6 °F 66.2 °F 83% 30.30 in 5.0 mi SE 11.5 mph - N/A   Overcast
4:00 PM 71.6 °F 64.4 °F 78% 30.30 in 5.6 mi East 8.1 mph - N/A   Overcast
5:00 PM 69.8 °F 62.6 °F 78% 30.30 in 6.2 mi East 8.1 mph - N/A   Overcast
6:00 PM 69.8 °F 62.6 °F 78% 30.30 in 6.2 mi East 8.1 mph - N/A   Overcast
7:00 PM 69.8 °F 62.6 °F 78% 30.30 in 6.2 mi East 4.6 mph - N/A   Overcast
8:00 PM 68.0 °F 64.4 °F 88% 30.33 in 6.2 mi NNE 6.9 mph - N/A   Overcast
9:00 PM 68.0 °F 66.2 °F 94% 30.33 in 6.2 mi NE 5.8 mph - N/A   Overcast
10:00 PM 68.0 °F 64.4 °F 88% 30.33 in 6.2 mi NE 4.6 mph - N/A   Mostly Cloudy
11:00 PM 68.0 °F 64.4 °F 88% 30.33 in 6.2 mi ESE 3.5 mph - N/A   Mostly Cloudy